Year,Month,Day,Hour,Minute,Value (Times are PST for temperature in C)
2015,07,01,00,00,17.00
2015,07,01,00,01,16.90
2015,07,01,00,02,16.90
2015,07,01,00,03,16.90
2015,07,01,00,04,16.90
2015,07,01,00,05,16.90
2015,07,01,00,06,16.90
2015,07,01,00,07,16.80
2015,07,01,00,08,16.80
2015,07,01,00,09,16.80
2015,07,01,00,10,16.80
2015,07,01,00,11,16.80
2015,07,01,00,12,16.80
2015,07,01,00,13,16.80
2015,07,01,00,14,16.80
2015,07,01,00,15,16.80
2015,07,01,00,16,16.70
2015,07,01,00,17,16.70
2015,07,01,00,18,16.70
2015,07,01,00,19,16.70
2015,07,01,00,20,16.70
2015,07,01,00,21,16.60
2015,07,01,00,22,16.60
2015,07,01,00,23,16.60
2015,07,01,00,24,16.60
2015,07,01,00,25,16.60
2015,07,01,00,26,16.60
2015,07,01,00,27,16.60
2015,07,01,00,28,16.60
2015,07,01,00,29,16.50
2015,07,01,00,30,16.50
2015,07,01,00,31,16.50
2015,07,01,00,32,16.40
2015,07,01,00,33,16.40
2015,07,01,00,34,16.40
2015,07,01,00,35,16.40
2015,07,01,00,36,16.40
2015,07,01,00,37,16.30
2015,07,01,00,38,16.30
2015,07,01,00,39,16.30
2015,07,01,00,40,16.30
2015,07,01,00,41,16.30
2015,07,01,00,42,16.30
2015,07,01,00,43,16.30
2015,07,01,00,44,16.30
2015,07,01,00,45,16.20
2015,07,01,00,46,16.20
2015,07,01,00,47,16.20
2015,07,01,00,48,16.20
2015,07,01,00,49,16.20
2015,07,01,00,50,16.20
2015,07,01,00,51,16.10
2015,07,01,00,52,16.10
2015,07,01,00,53,16.10
2015,07,01,00,54,16.10
2015,07,01,00,55,16.10
2015,07,01,00,56,16.10
2015,07,01,00,57,16.10
2015,07,01,00,58,16.00
2015,07,01,00,59,16.00
2015,07,01,01,00,16.00
2015,07,01,01,01,15.90
2015,07,01,01,02,15.90
2015,07,01,01,03,15.90
2015,07,01,01,04,15.90
2015,07,01,01,05,15.90
2015,07,01,01,06,15.90
2015,07,01,01,07,15.90
2015,07,01,01,08,15.90
2015,07,01,01,09,15.90
2015,07,01,01,10,15.80
2015,07,01,01,11,15.80
2015,07,01,01,12,15.80
2015,07,01,01,13,15.80
2015,07,01,01,14,15.80
2015,07,01,01,15,15.80
2015,07,01,01,16,15.80
2015,07,01,01,17,15.70
2015,07,01,01,18,15.70
2015,07,01,01,19,15.70
2015,07,01,01,20,15.70
2015,07,01,01,21,15.70
2015,07,01,01,22,15.70
2015,07,01,01,23,15.70
2015,07,01,01,24,15.70
2015,07,01,01,25,15.70
2015,07,01,01,26,15.60
2015,07,01,01,27,15.60
2015,07,01,01,28,15.60
2015,07,01,01,29,15.60
2015,07,01,01,30,15.60
2015,07,01,01,31,15.50
2015,07,01,01,32,15.50
2015,07,01,01,33,15.50
2015,07,01,01,34,15.50
2015,07,01,01,35,15.50
2015,07,01,01,36,15.50
2015,07,01,01,37,15.50
2015,07,01,01,38,15.50
2015,07,01,01,39,15.50
2015,07,01,01,40,15.50
2015,07,01,01,41,15.40
2015,07,01,01,42,15.40
2015,07,01,01,43,15.40
2015,07,01,01,44,15.40
2015,07,01,01,45,15.40
2015,07,01,01,46,15.40
2015,07,01,01,47,15.40
2015,07,01,01,48,15.40
2015,07,01,01,49,15.40
2015,07,01,01,50,15.40
2015,07,01,01,51,15.40
2015,07,01,01,52,15.30
2015,07,01,01,53,15.30
2015,07,01,01,54,15.30
2015,07,01,01,55,15.30
2015,07,01,01,56,15.30
2015,07,01,01,57,15.30
2015,07,01,01,58,15.30
2015,07,01,01,59,15.30
2015,07,01,02,00,15.40
2015,07,01,02,01,15.40
2015,07,01,02,02,15.40
2015,07,01,02,03,15.30
2015,07,01,02,04,15.30
2015,07,01,02,05,15.30
2015,07,01,02,06,15.30
2015,07,01,02,07,15.30
2015,07,01,02,08,15.40
2015,07,01,02,09,15.40
2015,07,01,02,10,15.30
2015,07,01,02,11,15.30
2015,07,01,02,12,15.30
2015,07,01,02,13,15.40
2015,07,01,02,14,15.30
2015,07,01,02,15,15.30
2015,07,01,02,16,15.30
2015,07,01,02,17,15.40
2015,07,01,02,18,15.40
2015,07,01,02,19,15.40
2015,07,01,02,20,15.40
2015,07,01,02,21,15.30
2015,07,01,02,22,15.30
2015,07,01,02,23,15.30
2015,07,01,02,24,15.30
2015,07,01,02,25,15.30
2015,07,01,02,26,15.30
2015,07,01,02,27,15.30
2015,07,01,02,28,15.30
2015,07,01,02,29,15.30
2015,07,01,02,30,15.30
2015,07,01,02,31,15.30
2015,07,01,02,32,15.30
2015,07,01,02,33,15.20
2015,07,01,02,34,15.20
2015,07,01,02,35,15.20
2015,07,01,02,36,15.20
2015,07,01,02,37,15.20
2015,07,01,02,38,15.20
2015,07,01,02,39,15.20
2015,07,01,02,40,15.20
2015,07,01,02,41,15.20
2015,07,01,02,42,15.10
2015,07,01,02,43,15.10
2015,07,01,02,44,15.10
2015,07,01,02,45,15.20
2015,07,01,02,46,15.10
2015,07,01,02,47,15.10
2015,07,01,02,48,15.20
2015,07,01,02,49,15.20
2015,07,01,02,50,15.20
2015,07,01,02,51,15.20
2015,07,01,02,52,15.20
2015,07,01,02,53,15.20
2015,07,01,02,54,15.20
2015,07,01,02,55,15.10
2015,07,01,02,56,15.10
2015,07,01,02,57,15.10
2015,07,01,02,58,15.10
2015,07,01,02,59,15.10
2015,07,01,03,00,15.10
2015,07,01,03,01,15.10
2015,07,01,03,02,15.10
2015,07,01,03,03,15.10
2015,07,01,03,04,15.20
2015,07,01,03,05,15.20
2015,07,01,03,06,15.20
2015,07,01,03,07,15.20
2015,07,01,03,08,15.20
2015,07,01,03,09,15.20
2015,07,01,03,10,15.10
2015,07,01,03,11,15.20
2015,07,01,03,12,15.10
2015,07,01,03,13,15.10
2015,07,01,03,14,15.10
2015,07,01,03,15,15.10
2015,07,01,03,16,15.10
2015,07,01,03,17,15.10
2015,07,01,03,18,15.10
2015,07,01,03,19,15.00
2015,07,01,03,20,15.00
2015,07,01,03,21,15.00
2015,07,01,03,22,14.90
2015,07,01,03,23,14.90
2015,07,01,03,24,14.90
2015,07,01,03,25,14.80
2015,07,01,03,26,14.80
2015,07,01,03,27,14.80
2015,07,01,03,28,14.80
2015,07,01,03,29,14.80
2015,07,01,03,30,14.80
2015,07,01,03,31,14.80
2015,07,01,03,32,14.70
2015,07,01,03,33,14.70
2015,07,01,03,34,14.70
2015,07,01,03,35,14.70
2015,07,01,03,36,14.70
2015,07,01,03,37,14.70
2015,07,01,03,38,14.70
2015,07,01,03,39,14.70
2015,07,01,03,40,14.60
2015,07,01,03,41,14.60
2015,07,01,03,42,14.60
2015,07,01,03,43,14.60
2015,07,01,03,44,14.60
2015,07,01,03,45,14.60
2015,07,01,03,46,14.60
2015,07,01,03,47,14.60
2015,07,01,03,48,14.60
2015,07,01,03,49,14.50
2015,07,01,03,50,14.50
2015,07,01,03,51,14.50
2015,07,01,03,52,14.50
2015,07,01,03,53,14.40
2015,07,01,03,54,14.40
2015,07,01,03,55,14.40
2015,07,01,03,56,14.40
2015,07,01,03,57,14.40
2015,07,01,03,58,14.30
2015,07,01,03,59,14.30
2015,07,01,04,00,14.30
2015,07,01,04,01,14.30
2015,07,01,04,02,14.30
2015,07,01,05,02,14.30
2015,07,01,05,03,14.30
2015,07,01,05,04,14.30
2015,07,01,05,05,14.30
2015,07,01,05,06,14.30
2015,07,01,05,07,14.30
2015,07,01,05,08,14.30
2015,07,01,05,09,14.30
2015,07,01,05,10,14.30
2015,07,01,05,11,14.20
2015,07,01,05,12,14.20
2015,07,01,05,13,14.20
2015,07,01,05,14,14.20
2015,07,01,05,15,14.20
2015,07,01,05,16,14.20
2015,07,01,05,17,14.20
2015,07,01,05,18,14.20
2015,07,01,05,19,14.20
2015,07,01,05,20,14.20
2015,07,01,05,21,14.20
2015,07,01,05,22,14.20
2015,07,01,05,23,14.20
2015,07,01,05,24,14.20
2015,07,01,05,25,14.20
2015,07,01,05,26,14.20
2015,07,01,05,27,14.20
2015,07,01,05,28,14.20
2015,07,01,05,29,14.20
2015,07,01,05,30,14.20
2015,07,01,05,31,14.20
2015,07,01,05,32,14.20
2015,07,01,05,33,14.20
2015,07,01,05,34,14.20
2015,07,01,05,35,14.20
2015,07,01,05,36,14.20
2015,07,01,05,37,14.20
2015,07,01,05,38,14.20
2015,07,01,05,39,14.20
2015,07,01,05,40,14.20
2015,07,01,05,41,14.20
2015,07,01,05,42,14.20
2015,07,01,05,43,14.20
2015,07,01,05,44,14.20
2015,07,01,05,45,14.20
2015,07,01,05,46,14.10
2015,07,01,05,47,14.10
2015,07,01,05,48,14.10
2015,07,01,05,49,14.10
2015,07,01,05,50,14.10
2015,07,01,05,51,14.10
2015,07,01,05,52,14.10
2015,07,01,05,53,14.10
2015,07,01,05,54,14.10
2015,07,01,05,55,14.20
2015,07,01,05,56,14.20
2015,07,01,05,57,14.20
2015,07,01,05,58,14.20
2015,07,01,05,59,14.20
2015,07,01,06,00,14.30
2015,07,01,06,01,14.30
2015,07,01,06,02,14.30
2015,07,01,06,03,14.30
2015,07,01,06,04,14.40
2015,07,01,06,05,14.40
2015,07,01,06,06,14.50
2015,07,01,06,07,14.50
2015,07,01,06,08,14.50
2015,07,01,06,09,14.60
2015,07,01,06,10,14.60
2015,07,01,06,11,14.60
2015,07,01,06,12,14.60
2015,07,01,06,13,14.60
2015,07,01,06,14,14.60
2015,07,01,06,15,14.70
2015,07,01,06,16,14.70
2015,07,01,06,17,14.70
2015,07,01,06,18,14.70
2015,07,01,06,19,14.70
2015,07,01,06,20,14.80
2015,07,01,06,21,14.80
2015,07,01,06,22,14.80
2015,07,01,06,23,14.80
2015,07,01,06,24,14.80
2015,07,01,06,25,14.80
2015,07,01,06,26,14.80
2015,07,01,06,27,14.90
2015,07,01,06,28,14.90
2015,07,01,06,29,14.90
2015,07,01,06,30,14.90
2015,07,01,06,31,14.90
2015,07,01,06,32,14.90
2015,07,01,06,33,15.00
2015,07,01,06,34,15.00
2015,07,01,06,35,15.00
2015,07,01,06,36,15.00
2015,07,01,06,37,15.10
2015,07,01,06,38,15.10
2015,07,01,06,39,15.10
2015,07,01,06,40,15.10
2015,07,01,06,41,15.20
2015,07,01,06,42,15.20
2015,07,01,06,43,15.20
2015,07,01,06,44,15.20
2015,07,01,06,45,15.30
2015,07,01,06,46,15.30
2015,07,01,06,47,15.30
2015,07,01,06,48,15.40
2015,07,01,06,49,15.40
2015,07,01,06,50,15.40
2015,07,01,06,51,15.40
2015,07,01,06,52,15.40
2015,07,01,06,53,15.50
2015,07,01,06,54,15.50
2015,07,01,06,55,15.50
2015,07,01,06,56,15.60
2015,07,01,06,57,15.60
2015,07,01,06,58,15.60
2015,07,01,06,59,15.70
2015,07,01,07,00,15.70
2015,07,01,07,01,15.70
2015,07,01,07,02,15.80
2015,07,01,07,03,15.80
2015,07,01,07,04,15.80
2015,07,01,07,05,15.80
2015,07,01,07,06,15.90
2015,07,01,07,07,15.90
2015,07,01,07,08,15.90
2015,07,01,07,09,16.00
2015,07,01,07,10,16.00
2015,07,01,07,11,16.10
2015,07,01,07,12,16.10
2015,07,01,07,13,16.20
2015,07,01,07,14,16.20
2015,07,01,07,15,16.30
2015,07,01,07,16,16.30
2015,07,01,07,17,16.30
2015,07,01,07,18,16.30
2015,07,01,07,19,16.30
2015,07,01,07,20,16.40
2015,07,01,07,21,16.40
2015,07,01,07,22,16.40
2015,07,01,07,23,16.40
2015,07,01,07,24,16.40
2015,07,01,07,25,16.40
2015,07,01,07,26,16.40
2015,07,01,07,27,16.50
2015,07,01,07,28,16.50
2015,07,01,07,29,16.60
2015,07,01,07,30,16.60
2015,07,01,07,31,16.70
2015,07,01,07,32,16.70
2015,07,01,07,33,16.70
2015,07,01,07,34,16.80
2015,07,01,07,35,16.80
2015,07,01,07,36,16.80
2015,07,01,07,37,16.80
2015,07,01,07,38,16.80
2015,07,01,07,39,16.80
2015,07,01,07,40,16.80
2015,07,01,07,41,16.80
2015,07,01,07,42,16.80
2015,07,01,07,43,16.90
2015,07,01,07,44,16.90
2015,07,01,07,45,16.90
2015,07,01,07,46,17.00
2015,07,01,07,47,17.00
2015,07,01,07,48,17.00
2015,07,01,07,49,17.00
2015,07,01,07,50,17.00
2015,07,01,07,51,17.00
2015,07,01,07,52,17.00
2015,07,01,07,53,17.00
2015,07,01,07,54,17.00
2015,07,01,07,55,17.10
2015,07,01,07,56,17.20
2015,07,01,07,57,17.20
2015,07,01,07,58,17.20
2015,07,01,07,59,17.20
2015,07,01,08,00,17.20
2015,07,01,08,01,17.20
2015,07,01,08,02,17.30
2015,07,01,08,03,17.30
2015,07,01,08,04,17.30
2015,07,01,08,05,17.30
2015,07,01,08,06,17.30
2015,07,01,08,07,17.30
2015,07,01,08,08,17.30
2015,07,01,08,09,17.40
2015,07,01,08,10,17.40
2015,07,01,08,11,17.50
2015,07,01,08,12,17.60
2015,07,01,08,13,17.60
2015,07,01,08,14,17.70
2015,07,01,08,15,17.70
2015,07,01,08,16,17.80
2015,07,01,08,17,17.90
2015,07,01,08,18,17.90
2015,07,01,08,19,18.00
2015,07,01,08,20,18.00
2015,07,01,08,21,18.10
2015,07,01,08,22,18.00
2015,07,01,08,23,18.00
2015,07,01,08,24,17.90
2015,07,01,08,25,17.90
2015,07,01,08,26,17.90
2015,07,01,08,27,18.00
2015,07,01,08,28,18.10
2015,07,01,08,29,18.10
2015,07,01,08,30,18.10
2015,07,01,08,31,18.20
2015,07,01,08,32,18.20
2015,07,01,08,33,18.20
2015,07,01,08,34,18.30
2015,07,01,08,35,18.30
2015,07,01,08,36,18.30
2015,07,01,08,37,18.30
2015,07,01,08,38,18.40
2015,07,01,08,39,18.30
2015,07,01,08,40,18.40
2015,07,01,08,41,18.50
2015,07,01,08,42,18.60
2015,07,01,08,43,18.70
2015,07,01,08,44,18.80
2015,07,01,08,45,18.80
2015,07,01,08,46,18.80
2015,07,01,08,47,18.80
2015,07,01,08,48,18.80
2015,07,01,08,49,18.80
2015,07,01,08,50,18.80
2015,07,01,08,51,18.90
2015,07,01,08,52,18.90
2015,07,01,08,53,19.00
2015,07,01,08,54,19.10
2015,07,01,08,55,19.20
2015,07,01,08,56,19.30
2015,07,01,08,57,19.30
2015,07,01,08,58,19.30
2015,07,01,08,59,19.30
2015,07,01,09,00,19.30
2015,07,01,09,01,19.30
2015,07,01,09,02,19.40
2015,07,01,09,03,19.40
2015,07,01,09,04,19.40
2015,07,01,09,05,19.40
2015,07,01,09,06,19.40
2015,07,01,09,07,19.40
2015,07,01,09,08,19.40
2015,07,01,09,09,19.40
2015,07,01,09,10,19.40
2015,07,01,09,11,19.40
2015,07,01,09,12,19.40
2015,07,01,09,13,19.50
2015,07,01,09,14,19.50
2015,07,01,09,15,19.60
2015,07,01,09,16,19.60
2015,07,01,09,17,19.60
2015,07,01,09,18,19.60
2015,07,01,09,19,19.60
2015,07,01,09,20,19.60
2015,07,01,09,21,19.60
2015,07,01,09,22,19.60
2015,07,01,09,23,19.50
2015,07,01,09,24,19.40
2015,07,01,09,25,19.40
2015,07,01,09,26,19.40
2015,07,01,09,27,19.40
2015,07,01,09,28,19.40
2015,07,01,09,29,19.40
2015,07,01,09,30,19.50
2015,07,01,09,31,19.50
2015,07,01,09,32,19.60
2015,07,01,09,33,19.60
2015,07,01,09,34,19.60
2015,07,01,09,35,19.60
2015,07,01,09,36,19.60
2015,07,01,09,37,19.60
2015,07,01,09,38,19.60
2015,07,01,09,39,19.60
2015,07,01,09,40,19.50
2015,07,01,09,41,19.50
2015,07,01,09,42,19.50
2015,07,01,09,43,19.50
2015,07,01,09,44,19.60
2015,07,01,09,45,19.70
2015,07,01,09,46,19.80
2015,07,01,09,47,19.80
2015,07,01,09,48,19.80
2015,07,01,09,49,19.90
2015,07,01,09,50,19.90
2015,07,01,09,51,19.90
2015,07,01,09,52,19.90
2015,07,01,09,53,20.00
2015,07,01,09,54,20.10
2015,07,01,09,55,20.10
2015,07,01,09,56,20.10
2015,07,01,09,57,20.10
2015,07,01,09,58,20.10
2015,07,01,09,59,20.10
2015,07,01,10,00,20.20
2015,07,01,10,01,20.20
2015,07,01,10,02,20.20
2015,07,01,10,03,20.20
2015,07,01,10,04,20.20
2015,07,01,10,05,20.30
2015,07,01,10,06,20.30
2015,07,01,10,07,20.30
2015,07,01,10,08,20.30
2015,07,01,10,09,20.30
2015,07,01,10,10,20.30
2015,07,01,10,11,20.30
2015,07,01,10,12,20.30
2015,07,01,10,13,20.30
2015,07,01,10,14,20.30
2015,07,01,10,15,20.30
2015,07,01,10,16,20.20
2015,07,01,10,17,20.20
2015,07,01,10,18,20.20
2015,07,01,10,19,20.30
2015,07,01,10,20,20.30
2015,07,01,10,21,20.40
2015,07,01,10,22,20.50
2015,07,01,10,23,20.50
2015,07,01,10,24,20.40
2015,07,01,10,25,20.40
2015,07,01,10,26,20.40
2015,07,01,10,27,20.40
2015,07,01,10,28,20.40
2015,07,01,10,29,20.50
2015,07,01,10,30,20.60
2015,07,01,10,31,20.60
2015,07,01,10,32,20.70
2015,07,01,10,33,20.70
2015,07,01,10,34,20.80
2015,07,01,10,35,20.80
2015,07,01,10,36,20.80
2015,07,01,10,37,20.80
2015,07,01,10,38,20.70
2015,07,01,10,39,20.80
2015,07,01,10,40,20.80
2015,07,01,10,41,20.80
2015,07,01,10,42,20.90
2015,07,01,10,43,20.90
2015,07,01,10,44,21.00
2015,07,01,10,45,21.00
2015,07,01,10,46,21.10
2015,07,01,10,47,21.10
2015,07,01,10,48,21.20
2015,07,01,10,49,21.30
2015,07,01,10,50,21.40
2015,07,01,10,51,21.50
2015,07,01,10,52,21.50
2015,07,01,10,53,21.50
2015,07,01,10,54,21.60
2015,07,01,10,55,21.60
2015,07,01,10,56,21.70
2015,07,01,10,57,21.70
2015,07,01,10,58,21.70
2015,07,01,10,59,21.70
2015,07,01,11,00,21.80
2015,07,01,11,01,21.90
2015,07,01,11,02,21.90
2015,07,01,11,03,21.90
2015,07,01,11,04,21.90
2015,07,01,11,05,21.90
2015,07,01,11,06,22.00
2015,07,01,11,07,22.10
2015,07,01,11,08,22.30
2015,07,01,11,09,22.30
2015,07,01,11,10,22.30
2015,07,01,11,11,22.30
2015,07,01,11,12,22.30
2015,07,01,11,13,22.30
2015,07,01,11,14,22.20
2015,07,01,11,15,22.10
2015,07,01,11,16,22.20
2015,07,01,11,17,22.30
2015,07,01,11,18,22.50
2015,07,01,11,19,22.70
2015,07,01,11,20,22.90
2015,07,01,11,21,22.90
2015,07,01,11,22,23.00
2015,07,01,11,23,23.00
2015,07,01,11,24,23.00
2015,07,01,11,25,23.00
2015,07,01,11,26,23.00
2015,07,01,11,27,23.00
2015,07,01,11,28,23.00
2015,07,01,11,29,23.10
2015,07,01,11,30,23.20
2015,07,01,11,31,23.40
2015,07,01,11,32,23.50
2015,07,01,11,33,23.60
2015,07,01,11,34,23.60
2015,07,01,11,35,23.70
2015,07,01,11,36,23.70
2015,07,01,11,37,23.60
2015,07,01,11,38,23.60
2015,07,01,11,39,23.60
2015,07,01,11,40,23.70
2015,07,01,11,41,23.70
2015,07,01,11,42,23.70
2015,07,01,11,43,23.70
2015,07,01,11,44,23.60
2015,07,01,11,45,23.60
2015,07,01,11,46,23.60
2015,07,01,11,47,23.70
2015,07,01,11,48,23.90
2015,07,01,11,49,23.90
2015,07,01,11,50,24.00
2015,07,01,11,51,24.10
2015,07,01,11,52,24.10
2015,07,01,11,53,24.10
2015,07,01,11,54,24.00
2015,07,01,11,55,23.80
2015,07,01,11,56,23.80
2015,07,01,11,57,24.00
2015,07,01,11,58,24.10
2015,07,01,11,59,24.20
2015,07,01,12,00,24.20
2015,07,01,12,01,24.30
2015,07,01,12,02,24.30
2015,07,01,12,03,24.40
2015,07,01,12,04,24.40
2015,07,01,12,05,24.40
2015,07,01,12,06,24.50
2015,07,01,12,07,24.60
2015,07,01,12,08,24.70
2015,07,01,12,09,24.60
2015,07,01,12,10,24.40
2015,07,01,12,11,24.30
2015,07,01,12,12,24.30
2015,07,01,12,13,24.30
2015,07,01,12,14,24.40
2015,07,01,12,15,24.50
2015,07,01,12,16,24.50
2015,07,01,12,17,24.50
2015,07,01,12,18,24.60
2015,07,01,12,19,24.70
2015,07,01,12,20,24.80
2015,07,01,12,21,25.00
2015,07,01,12,22,25.10
2015,07,01,12,23,25.30
2015,07,01,12,24,25.30
2015,07,01,12,25,25.40
2015,07,01,12,26,25.40
2015,07,01,12,27,25.40
2015,07,01,12,28,25.30
2015,07,01,12,29,25.20
2015,07,01,12,30,25.20
2015,07,01,12,31,25.20
2015,07,01,12,32,25.20
2015,07,01,12,33,25.20
2015,07,01,12,34,25.20
2015,07,01,12,35,25.20
2015,07,01,12,36,25.30
2015,07,01,12,37,25.50
2015,07,01,12,38,25.60
2015,07,01,12,39,25.70
2015,07,01,12,40,25.80
2015,07,01,12,41,25.90
2015,07,01,12,42,25.90
2015,07,01,12,43,26.00
2015,07,01,12,44,26.10
2015,07,01,12,45,26.20
2015,07,01,12,46,26.20
2015,07,01,12,47,26.20
2015,07,01,12,48,26.10
2015,07,01,12,49,26.00
2015,07,01,12,50,25.80
2015,07,01,12,51,25.60
2015,07,01,12,52,25.40
2015,07,01,12,53,25.20
2015,07,01,12,54,25.10
2015,07,01,12,55,25.10
2015,07,01,12,56,25.00
2015,07,01,12,57,24.90
2015,07,01,12,58,24.90
2015,07,01,12,59,24.90
2015,07,01,13,00,24.90
2015,07,01,13,01,24.90
2015,07,01,13,02,24.90
2015,07,01,13,03,24.90
2015,07,01,13,04,24.80
2015,07,01,13,05,24.80
2015,07,01,13,06,24.80
2015,07,01,13,07,24.70
2015,07,01,13,08,24.70
2015,07,01,13,09,24.70
2015,07,01,13,10,24.80
2015,07,01,13,11,24.80
2015,07,01,13,12,24.80
2015,07,01,13,13,24.80
2015,07,01,13,14,24.80
2015,07,01,13,15,24.80
2015,07,01,13,16,25.00
2015,07,01,13,17,25.10
2015,07,01,13,18,25.20
2015,07,01,13,19,25.30
2015,07,01,13,20,25.40
2015,07,01,13,21,25.40
2015,07,01,13,22,25.40
2015,07,01,13,23,25.40
2015,07,01,13,24,25.60
2015,07,01,13,25,25.70
2015,07,01,13,26,25.80
2015,07,01,13,27,25.80
2015,07,01,13,28,25.90
2015,07,01,13,29,25.90
2015,07,01,13,30,26.00
2015,07,01,13,31,26.10
2015,07,01,13,32,26.20
2015,07,01,13,33,26.30
2015,07,01,13,34,26.40
2015,07,01,13,35,26.40
2015,07,01,13,36,26.40
2015,07,01,13,37,26.50
2015,07,01,13,38,26.60
2015,07,01,13,39,26.60
2015,07,01,13,40,26.60
2015,07,01,13,41,26.60
2015,07,01,13,42,26.60
2015,07,01,13,43,26.70
2015,07,01,13,44,26.70
2015,07,01,13,45,26.70
2015,07,01,13,46,26.80
2015,07,01,13,47,26.90
2015,07,01,13,48,27.00
2015,07,01,13,49,27.00
2015,07,01,13,50,26.90
2015,07,01,13,51,26.90
2015,07,01,13,52,26.90
2015,07,01,13,53,26.80
2015,07,01,13,54,26.80
2015,07,01,13,55,26.80
2015,07,01,13,56,26.90
2015,07,01,13,57,26.90
2015,07,01,13,58,26.90
2015,07,01,13,59,26.80
2015,07,01,14,00,26.80
2015,07,01,14,01,26.90
2015,07,01,14,02,26.90
2015,07,01,14,03,26.90
2015,07,01,14,04,27.00
2015,07,01,14,05,27.00
2015,07,01,14,06,27.10
2015,07,01,14,07,27.00
2015,07,01,14,08,27.10
2015,07,01,14,09,27.10
2015,07,01,14,10,27.20
2015,07,01,14,11,27.30
2015,07,01,14,12,27.30
2015,07,01,14,13,27.30
2015,07,01,14,14,27.30
2015,07,01,14,15,27.30
2015,07,01,14,16,27.20
2015,07,01,14,17,27.20
2015,07,01,14,18,27.20
2015,07,01,14,19,27.20
2015,07,01,14,20,27.20
2015,07,01,14,21,27.30
2015,07,01,14,22,27.40
2015,07,01,14,23,27.50
2015,07,01,14,24,27.60
2015,07,01,14,25,27.60
2015,07,01,14,26,27.60
2015,07,01,14,27,27.70
2015,07,01,14,28,27.80
2015,07,01,14,29,27.70
2015,07,01,14,30,27.70
2015,07,01,14,31,27.70
2015,07,01,14,32,27.70
2015,07,01,14,33,27.70
2015,07,01,14,34,27.70
2015,07,01,14,35,27.80
2015,07,01,14,36,27.80
2015,07,01,14,37,27.80
2015,07,01,14,38,27.80
2015,07,01,14,39,27.80
2015,07,01,14,40,27.70
2015,07,01,14,41,27.70
2015,07,01,14,42,27.80
2015,07,01,14,43,27.80
2015,07,01,14,44,27.90
2015,07,01,14,45,27.90
2015,07,01,14,46,28.00
2015,07,01,14,47,28.20
2015,07,01,14,48,28.30
2015,07,01,14,49,28.40
2015,07,01,14,50,28.50
2015,07,01,14,51,28.60
2015,07,01,14,52,28.50
2015,07,01,14,53,28.40
2015,07,01,14,54,28.20
2015,07,01,14,55,28.10
2015,07,01,14,56,28.00
2015,07,01,14,57,28.00
2015,07,01,14,58,28.00
2015,07,01,14,59,28.00
2015,07,01,15,00,28.00
2015,07,01,15,01,27.90
2015,07,01,15,02,27.90
2015,07,01,15,03,27.90
2015,07,01,15,04,27.90
2015,07,01,15,05,27.90
2015,07,01,15,06,27.90
2015,07,01,15,07,27.80
2015,07,01,15,08,27.80
2015,07,01,15,09,27.90
2015,07,01,15,10,28.00
2015,07,01,15,11,28.10
2015,07,01,15,12,28.10
2015,07,01,15,13,28.20
2015,07,01,15,14,28.30
2015,07,01,15,15,28.30
2015,07,01,15,16,28.40
2015,07,01,15,17,28.40
2015,07,01,15,18,28.40
2015,07,01,15,19,28.30
2015,07,01,15,20,28.30
2015,07,01,15,21,28.40
2015,07,01,15,22,28.40
2015,07,01,15,23,28.40
2015,07,01,15,24,28.40
2015,07,01,15,25,28.40
2015,07,01,15,26,28.50
2015,07,01,15,27,28.50
2015,07,01,15,28,28.60
2015,07,01,15,29,28.70
2015,07,01,15,30,28.70
2015,07,01,15,31,28.60
2015,07,01,15,32,28.50
2015,07,01,15,33,28.50
2015,07,01,15,34,28.50
2015,07,01,15,35,28.60
2015,07,01,15,36,28.70
2015,07,01,15,37,28.80
2015,07,01,15,38,28.80
2015,07,01,15,39,28.90
2015,07,01,15,40,28.90
2015,07,01,15,41,28.90
2015,07,01,15,42,28.90
2015,07,01,15,43,29.00
2015,07,01,15,44,29.00
2015,07,01,15,45,29.00
2015,07,01,15,46,29.10
2015,07,01,15,47,29.10
2015,07,01,15,48,29.10
2015,07,01,15,49,29.10
2015,07,01,15,50,29.10
2015,07,01,15,51,29.10
2015,07,01,15,52,29.10
2015,07,01,15,53,29.20
2015,07,01,15,54,29.20
2015,07,01,15,55,29.20
2015,07,01,15,56,29.20
2015,07,01,15,57,29.20
2015,07,01,15,58,29.30
2015,07,01,15,59,29.30
2015,07,01,16,00,29.20
2015,07,01,16,01,29.20
2015,07,01,16,02,29.20
2015,07,01,16,03,29.30
2015,07,01,16,04,29.40
2015,07,01,16,05,29.50
2015,07,01,16,06,29.60
2015,07,01,16,07,29.60
2015,07,01,16,08,29.60
2015,07,01,16,09,29.50
2015,07,01,16,10,29.50
2015,07,01,16,11,29.60
2015,07,01,16,12,29.60
2015,07,01,16,13,29.70
2015,07,01,16,14,29.80
2015,07,01,16,15,29.80
2015,07,01,16,16,29.80
2015,07,01,16,17,29.80
2015,07,01,16,18,29.80
2015,07,01,16,19,29.80
2015,07,01,16,20,29.80
2015,07,01,16,21,29.80
2015,07,01,16,22,29.80
2015,07,01,16,23,29.80
2015,07,01,16,24,29.80
2015,07,01,16,25,29.90
2015,07,01,16,26,30.00
2015,07,01,16,27,30.10
2015,07,01,16,28,30.20
2015,07,01,16,29,30.30
2015,07,01,16,30,30.50
2015,07,01,16,31,30.60
2015,07,01,16,32,30.70
2015,07,01,16,33,30.80
2015,07,01,16,34,30.80
2015,07,01,16,35,30.80
2015,07,01,16,36,30.70
2015,07,01,16,37,30.60
2015,07,01,16,38,30.50
2015,07,01,16,39,30.40
2015,07,01,16,40,30.30
2015,07,01,16,41,30.30
2015,07,01,16,42,30.30
2015,07,01,16,43,30.30
2015,07,01,16,44,30.20
2015,07,01,16,45,30.20
2015,07,01,16,46,30.20
2015,07,01,16,47,30.20
2015,07,01,16,48,30.20
2015,07,01,16,49,30.20
2015,07,01,16,50,30.20
2015,07,01,16,51,30.30
2015,07,01,16,52,30.30
2015,07,01,16,53,30.40
2015,07,01,16,54,30.40
2015,07,01,16,55,30.40
2015,07,01,16,56,30.40
2015,07,01,16,57,30.30
2015,07,01,16,58,30.30
2015,07,01,16,59,30.40
2015,07,01,17,00,30.40
2015,07,01,17,01,30.30
2015,07,01,17,02,30.30
2015,07,01,17,03,30.30
2015,07,01,17,04,30.40
2015,07,01,17,05,30.40
2015,07,01,17,06,30.40
2015,07,01,17,07,30.40
2015,07,01,17,08,30.50
2015,07,01,17,09,30.50
2015,07,01,17,10,30.60
2015,07,01,17,11,30.60
2015,07,01,17,12,30.60
2015,07,01,17,13,30.60
2015,07,01,17,14,30.60
2015,07,01,17,15,30.60
2015,07,01,17,16,30.50
2015,07,01,17,17,30.50
2015,07,01,17,18,30.50
2015,07,01,17,19,30.50
2015,07,01,17,20,30.50
2015,07,01,17,21,30.50
2015,07,01,17,22,30.60
2015,07,01,17,23,30.50
2015,07,01,17,24,30.50
2015,07,01,17,25,30.40
2015,07,01,17,26,30.40
2015,07,01,17,27,30.40
2015,07,01,17,28,30.50
2015,07,01,17,29,30.50
2015,07,01,17,30,30.50
2015,07,01,17,31,30.50
2015,07,01,17,32,30.50
2015,07,01,17,33,30.50
2015,07,01,17,34,30.50
2015,07,01,17,35,30.40
2015,07,01,17,36,30.30
2015,07,01,17,37,30.20
2015,07,01,17,38,30.20
2015,07,01,17,39,30.20
2015,07,01,17,40,30.30
2015,07,01,17,41,30.30
2015,07,01,17,42,30.20
2015,07,01,17,43,30.20
2015,07,01,17,44,30.20
2015,07,01,17,45,30.20
2015,07,01,17,46,30.20
2015,07,01,17,47,30.30
2015,07,01,17,48,30.30
2015,07,01,17,49,30.40
2015,07,01,17,50,30.50
2015,07,01,17,51,30.70
2015,07,01,17,52,30.80
2015,07,01,17,53,30.80
2015,07,01,17,54,30.80
2015,07,01,17,55,30.80
2015,07,01,17,56,30.80
2015,07,01,17,57,30.90
2015,07,01,17,58,31.00
2015,07,01,17,59,31.10
2015,07,01,18,00,31.10
2015,07,01,18,01,31.10
2015,07,01,18,02,31.20
2015,07,01,18,03,31.20
2015,07,01,18,04,31.20
2015,07,01,18,05,31.20
2015,07,01,18,06,31.30
2015,07,01,18,07,31.30
2015,07,01,18,08,31.20
2015,07,01,18,09,31.20
2015,07,01,18,10,31.20
2015,07,01,18,11,31.20
2015,07,01,18,12,31.20
2015,07,01,18,13,31.20
2015,07,01,18,14,31.20
2015,07,01,18,15,31.30
2015,07,01,18,16,31.30
2015,07,01,18,17,31.30
2015,07,01,18,18,31.30